Location: Quaker Farms
(41.4276°N, 73.1557°W)
Time: 20:53:21
(UTC+00:00)

S-56A Canister/Altair - Pass Details

Date: 16 June 2021
Orbit: 631 x 2501 km, 38.9° (Epoch: 30 July)

Event Time Altitude Azimuth Distance (km) Brightness Sun altitude
Rises 12:31:36 0° 265° (W) 3,057 10.1 33.3°
Reaches altitude 10° 12:33:41 10° 263° (W) 2,245 9.5 33.6°
Maximum altitude 12:38:48 71° 179° (S) 956 8.6 34.6°
Drops below altitude 10° 12:46:11 10° 97° (E) 3,201 12.0 36.0°
Sets 12:49:41 0° 96° (E) 4,478 12.4 36.6°
